User: anonymous   Login
Location: Centerville
(32.8776°N, 96.6203°W)
Time: 15:57:38
(UTC+00:00)
Language:

CARTOSAT-1 - Orbit

View from above orbital plane
View from above orbital plane
View from above satellite
View from above satellite

Ground track
Ground track

The orbit data is extracted from the following two-line orbital elements,

1 28649U 05017A   21259.11686793  .00000097  00000-0  17944-4 0  9997
2 28649  97.7597 322.8106 0002474  64.1006 296.0464 14.83819278886072
Epoch (UTC): 16 September 2021 02:48:17
Eccentricity: 0.0002474
inclination: 97.7597°
perigee height: 615 km
apogee height: 619 km
right ascension of ascending node: 322.8106°
argument of perigee: 64.1006°
revolutions per day: 14.83819278
mean anomaly at epoch: 296.0464°
orbit number at epoch: 88607

The dashed part of the orbit path shows where the satellite is in the earth's shadow,  

DLR